Location: Kynce?ova
(48.7499°N, 19.1857°E)
Time: 18:45:13
(UTC+00:00)

Daily predictions for brighter satellites

Satellite Brightness Start Highest point End
(mag) Time Altitude Azimuth Time Altitude Azimuth Time Altitude Azimuth
SL-16 R/B 2.2 17:36:27 10° SSW 17:42:06 81° ESE 17:47:48 10° NNE
STARLINK-1114 3.9 17:40:09 10° WNW 17:44:16 67° SSW 17:48:23 10° SE
SJ-6B 3.7 17:40:34 10° SE 17:44:16 33° ENE 17:48:01 10° N
STARLINK-1216 4.0 17:41:17 10° W 17:45:25 64° NNW 17:49:32 10° ENE
SL-14 R/B 3.5 17:43:01 10° NNW 17:47:05 81° W 17:51:05 10° S
MOS 1 4.5 17:42:32 10° SE 17:48:01 55° ENE 17:53:32 10° N
CZ-2C R/B 3.1 17:43:44 10° SE 17:48:30 51° ENE 17:53:08 10° N
STARLINK-1130 (DARKSAT) 4.0 17:45:07 10° WNW 17:49:13 62° SSW 17:53:19 10° SE
STARLINK-1237 4.1 17:46:18 10° W 17:50:25 61° NNW 17:54:32 10° ENE
CZ-2C R/B 3.9 17:50:05 10° NE 17:53:30 18° E 17:56:54 10° SE
Meteor 1-21 Rocket 4.4 17:48:45 10° N 17:54:11 51° ENE 17:59:33 10° SSE
STARLINK-1084 4.1 17:50:07 10° WNW 17:54:11 58° SSW 17:58:16 10° SE
Cosmos 1758 3.4 17:50:22 10° S 17:54:22 57° E 17:58:25 10° NNE
STARLINK-1202 4.1 17:51:17 10° W 17:55:23 59° NNW 17:59:30 10° ENE
Cosmos 1992 Rocket 4.1 17:51:34 10° NNW 17:56:44 57° ENE 18:01:51 10° SE
STARLINK-1203 4.2 17:52:46 10° W 17:56:51 56° NNW 18:00:55 10° ENE
Cosmos 2084 Rocket 3.7 17:53:49 10° NW 17:58:17 75° SW 18:02:45 10° SE
STARLINK-1233 4.1 17:55:39 10° WNW 17:58:38 38° N 18:01:38 10° ENE
Cosmos 2228 4.4 17:55:51 10° SE 17:58:49 18° E 18:01:48 10° NE
STARLINK-1212 4.1 17:56:07 10° WNW 17:59:05 38° N 18:02:04 10° ENE
STARLINK-1098 4.2 17:55:07 10° WNW 17:59:10 54° SW 18:03:13 10° SE
STARLINK-1105 4.1 17:56:34 10° WNW 17:59:33 38° N 18:02:32 10° ENE
COSMOS 2455 4.4 17:55:03 10° NNW 17:59:47 23° NNE 18:04:30 10° E
STARLINK-1206 4.1 17:57:04 10° WNW 18:00:00 38° N 18:02:58 10° ENE
STARLINK-1247 4.1 17:57:31 10° WNW 18:00:27 38° N 18:03:24 10° ENE
CZ-4 R/B 4.1 17:57:49 10° SSW 18:00:52 22° W 18:03:57 10° NW
STARLINK-1227 4.1 17:57:54 10° WNW 18:00:53 38° N 18:03:52 10° ENE
ARGOS 3.2 17:55:47 10° SSE 18:01:06 64° ENE 18:06:26 10° N
STARLINK-1218 4.1 17:58:25 10° WNW 18:01:22 37° N 18:04:20 10° ENE
STARLINK-1226 4.1 17:58:51 10° WNW 18:01:48 37° N 18:04:46 10° ENE
STARLINK-1254 4.1 17:59:17 10° WNW 18:02:15 38° N 18:05:14 10° ENE
STARLINK-1215 4.1 17:59:47 10° WNW 18:02:44 37° N 18:05:41 10° ENE
STARLINK-1231 4.1 18:00:15 10° WNW 18:03:12 37° N 18:06:09 10° ENE
STARLINK-1232 4.1 18:01:08 10° WNW 18:04:05 37° N 18:07:02 10° ENE
STARLINK-1123 4.3 18:00:07 10° WNW 18:04:08 50° SW 18:08:09 10° SE
STARLINK-1217 4.1 18:01:35 10° WNW 18:04:32 37° N 18:07:29 10° ENE
Cosmos 1603 4.1 17:59:30 10° S 18:04:38 38° ESE 18:09:47 10° NE
STARLINK-1208 4.1 18:02:00 10° WNW 18:04:58 37° N 18:07:57 10° ENE
STARLINK-1246 4.2 18:01:16 10° W 18:05:21 55° NNW 18:09:27 10° ENE
STARLINK-1229 4.1 18:02:29 10° WNW 18:05:25 37° N 18:08:22 10° ENE
STARLINK-1271 4.1 18:02:56 10° WNW 18:05:53 37° N 18:08:50 10° ENE
STARLINK-1270 4.1 18:03:24 10° WNW 18:06:21 37° N 18:09:17 10° ENE
STARLINK-1154 4.1 18:03:51 10° WNW 18:06:47 37° N 18:09:44 10° ENE
Meteor 2-15 4.4 18:01:03 10° S 18:07:05 77° E 18:13:10 10° NNE
STARLINK-1197 4.1 18:04:45 10° WNW 18:07:42 37° N 18:10:38 10° ENE
SL-4 R/B 3.6 18:06:45 10° SSE 18:07:49 11° SE 18:08:04 11° SE
STARLINK-1189 4.1 18:05:14 10° WNW 18:08:10 37° N 18:11:07 10° ENE
STARLINK-1198 4.1 18:05:40 10° WNW 18:08:36 37° N 18:11:33 10° ENE
STARLINK-1188 4.1 18:06:07 10° WNW 18:09:04 36° N 18:12:00 10° ENE
Cosmos 2237 Rocket 4.2 18:04:06 10° WSW 18:09:05 31° NW 18:14:06 10° NNE
STARLINK-1097 4.4 18:05:06 10° WNW 18:09:06 47° SW 18:13:04 10° SE
STARLINK-1235 4.2 18:06:49 10° WNW 18:09:46 36° N 18:12:44 10° ENE
STARLINK-1187 4.2 18:07:04 10° WNW 18:10:03 36° N 18:13:02 10° ENE
STARLINK-1224 4.3 18:06:20 10° W 18:10:24 54° NNW 18:14:29 10° ENE
H-2A R/B 2.1 18:05:31 10° SSE 18:10:47 87° ENE 18:15:57 10° NNW
STARLINK-1199 4.1 18:08:03 10° WNW 18:11:01 37° N 18:13:59 10° ENE
IRS-1A Rocket 4.4 18:05:28 10° SSE 18:11:10 85° WSW 18:17:02 10° NNW
STARLINK-1201 4.2 18:08:14 10° WNW 18:11:20 38° N 18:14:26 10° ENE
STARLINK-1191 4.2 18:08:31 10° WNW 18:11:29 36° N 18:14:27 10° ENE
STARLINK-1210 4.2 18:08:58 10° WNW 18:11:55 36° N 18:14:53 10° ENE
Cosmos 2184 Rocket 4.2 18:06:03 10° N 18:12:13 52° ENE 18:18:16 10° SSE
STARLINK-1221 4.2 18:09:25 10° WNW 18:12:23 36° N 18:15:21 10° ENE
STARLINK-1219 4.2 18:09:52 10° WNW 18:12:50 36° N 18:15:48 10° ENE
STARLINK-1222 4.2 18:10:20 10° WNW 18:13:17 36° N 18:16:15 10° ENE
Cosmos 1726 2.8 18:09:55 10° SSE 18:13:19 34° E 18:16:43 10° NNE
STARLINK-1211 4.2 18:10:47 10° WNW 18:13:45 36° N 18:16:42 10° ENE
STARLINK-1099 4.5 18:10:06 10° WNW 18:14:03 44° SW 18:17:59 10° SE
STARLINK-1214 4.2 18:11:15 10° WNW 18:14:12 36° N 18:17:10 10° ENE
STARLINK-1245 4.2 18:11:44 10° WNW 18:14:39 36° N 18:17:35 10° ENE
STARLINK-1234 4.1 18:12:03 10° WNW 18:14:53 34° N 18:17:43 10° ENE
STARLINK-1238 4.2 18:12:08 10° WNW 18:15:06 36° N 18:18:04 10° ENE
STARLINK-1225 4.3 18:11:18 10° W 18:15:22 52° NNW 18:19:26 10° ENE
STARLINK-1228 4.1 18:12:48 10° WNW 18:15:30 33° N 18:18:11 10° ENE
USA 186 1.8 18:12:19 10° SSE 18:15:42 87° WSW 18:18:59 10° NNW
STARLINK-1205 4.2 18:13:05 10° WNW 18:16:01 36° N 18:18:57 10° ENE
STARLINK-1204 4.2 18:13:32 10° WNW 18:16:28 36° N 18:19:24 10° ENE
Resurs 1-3 4.1 18:14:02 10° SE 18:18:07 40° ENE 18:22:14 10° N
STARLINK-1230 4.4 18:16:19 10° W 18:20:22 51° N 18:24:26 10° ENE
Meteor 2-10 4.3 18:17:10 10° S 18:22:22 51° E 18:27:48 10° NNE
STARLINK-1243 4.4 18:21:18 10° W 18:25:21 50° N 18:29:25 10° ENE
STARLINK-1209 4.1 18:22:46 10° WNW 18:25:31 33° N 18:27:49 13° ENE
Cosmos 292 Rocket 4.0 18:23:18 10° NNW 18:28:05 72° WSW 18:32:53 10° SSE
Cosmos 1461 4.5 18:24:51 10° NNW 18:28:39 26° NE 18:31:32 15° E
Cosmos 1703 3.8 18:25:07 10° N 18:28:51 39° ENE 18:31:28 17° SE
DMSP B5D2-2 4.5 18:24:02 10° NNE 18:28:55 39° E 18:33:48 10° SSE
Cosmos 2251 Rocket 3.5 18:23:50 10° SSW 18:29:10 73° ESE 18:34:34 10° NNE
STARLINK-1236 4.4 18:26:22 10° W 18:30:24 49° N 18:34:25 10° ENE
NOSS 3-4 (A) 4.1 18:25:06 10° NW 18:31:48 55° NE 18:37:30 17° ESE
NOSS 3-4 (C) 4.1 18:25:12 10° NW 18:31:54 54° NE 18:37:35 17° ESE
Cosmos 1953 2.2 18:27:56 10° S 18:31:54 80° E 18:35:54 10° NNE
Cosmos 2154 Rocket 4.3 18:27:53 10° N 18:34:03 49° ENE 18:39:30 13° SSE
Resurs 01 Rocket 2.0 18:34:55 18° SE 18:37:52 45° ENE 18:42:06 10° N
FREGAT/IRIS 4.1 18:35:53 10° SSW 18:38:24 33° W 18:40:56 10° NNW
Cosmos 2369 Rocket 2.5 18:33:52 10° NNW 18:39:33 69° WSW 18:45:09 10° SSE
Aureole 3 4.1 18:35:38 10° SSW 18:40:07 77° W 18:45:56 10° N
STARLINK-1269 4.5 18:36:20 10° W 18:40:22 47° N 18:43:57 13° ENE
NOSS 3-3 (A) 3.9 18:36:05 10° SSW 18:41:55 71° SE 18:48:33 10° NE
NOSS 3-3 (C) 3.9 18:36:11 10° SSW 18:42:01 70° SE 18:48:38 10° NE
Nadezhda 1 Rocket 4.2 18:36:37 10° SSE 18:42:46 51° E 18:48:53 10° NNE
Cosmos 2058 Rocket 4.0 18:41:07 21° SE 18:43:02 29° E 18:46:56 10° NNE
IRIDIUM 104 4.5 18:40:06 10° N 18:45:21 78° W 18:50:33 10° S
STARLINK-1200 4.5 18:41:20 10° W 18:45:22 47° N 18:48:43 14° ENE
Cosmos 1943 Rocket 3.1 18:40:10 10° NW 18:45:29 47° WSW 18:50:47 10° S
Cosmos 1437 2.6 18:42:31 10° NNW 18:45:33 82° W 18:47:33 19° S
SL-8 R/B 4.2 18:42:34 10° W 18:47:11 49° SSW 18:49:51 23° SE
CZ-2C R/B 3.7 18:43:02 10° NNE 18:47:48 75° ESE 18:52:28 10° S
Meteor 1-11 4.4 18:42:22 10° N 18:48:04 55° ENE 18:52:02 19° SE
STARLINK-1192 4.5 18:46:21 10° W 18:50:22 46° N 18:53:31 16° ENE
Cosmos 2263 4.4 18:49:18 10° NNW 18:54:54 71° WSW 18:59:31 15° SSE
Cosmos 1908 3.3 18:52:23 19° SSE 18:54:56 52° E 18:58:44 10° NNE
STARLINK-1244 4.5 18:51:22 10° WNW 18:55:22 46° N 18:58:16 17° ENE
STARLINK-1138 4.5 18:56:22 10° WNW 19:00:23 45° N 19:03:04 19° ENE
SPOT 5 4.3 19:00:07 17° ENE 19:00:38 17° ENE 19:03:28 10° NNE
Abrixas rocket 1.8 18:57:54 10° W 19:00:52 83° S 19:01:18 61° E
Cosmos 2074 Rocket 4.2 18:54:58 10° NNW 19:01:15 73° W 19:07:30 10° S
STARLINK-67 3.3 18:59:15 10° WNW 19:01:42 38° NNE 19:01:57 37° NNE
Cosmos 1726 Rocket 3.5 18:57:24 10° S 19:01:43 66° E 19:06:08 10° NNE
ATLAS 2AS CENTAUR R/B 2.9 18:56:46 10° NW 19:04:30 78° NE 19:08:47 27° SE
Cosmos 1943 3.1 18:59:11 10° SSW 19:04:50 84° ESE 19:10:34 10° NNE
STARLINK-1143 4.5 19:01:19 10° WNW 19:05:20 45° N 19:07:48 21° ENE
USA 234 3.3 18:58:59 10° ENE 19:05:21 52° SE 19:11:41 10° SSW
Cosmos 1825 Rocket 4.0 19:01:48 10° NNW 19:06:10 62° W 19:10:01 13° S
ISS -1.8 19:03:43 10° W 19:06:15 20° SW 19:07:16 17° SSW
Aureole 1 Rocket 4.3 19:00:06 10° S 19:07:41 56° ESE 19:13:47 10° NNE
Spot 2 Rocket 3.8 19:06:11 31° SE 19:08:17 50° ENE 19:13:14 10° N
STARLINK-1241 4.5 19:06:23 10° WNW 19:10:24 45° N 19:12:38 23° ENE
SPOT 3 Rocket 4.2 19:07:13 10° S 19:12:20 55° W 19:17:28 10° NNW
Cosmos 1140 Rocket 4.0 19:11:31 34° SE 19:12:25 37° ESE 19:17:09 10° NE
Meteor 2-17 Rocket 4.4 19:06:29 10° N 19:12:40 88° E 19:17:20 18° S
STARLINK-1239 4.5 19:11:23 10° WNW 19:15:24 45° N 19:17:25 25° ENE
Cosmos 1610 Rocket 4.5 19:10:30 10° N 19:16:45 83° W 19:21:46 16° S
Iridium 4 Rocket 4.4 19:13:56 10° NNE 19:16:55 23° ENE 19:16:55 23° ENE
MetOp-B 4.1 19:15:55 32° SE 19:18:24 69° ENE 19:23:45 10° N
STARLINK-1240 4.5 19:16:23 10° WNW 19:20:24 45° N 19:22:12 27° ENE
MOS 1 Rocket 3.6 19:17:03 10° NNE 19:22:23 84° WNW 19:27:49 10° SSW
Cosmos 1953 Rocket 4.1 19:20:45 10° NNW 19:25:09 59° W 19:27:53 22° SSW
STARLINK-1216 4.5 19:21:24 10° WNW 19:25:25 46° N 19:27:00 30° NE
CZ-4C R/B 4.3 19:20:56 10° NW 19:26:10 25° NNE 19:32:08 10° ENE
Terra 3.1 19:28:44 25° ENE 19:28:55 25° ENE 19:32:47 10° N
Cosmos 1606 Rocket 4.3 19:25:35 10° SSW 19:29:54 53° WNW 19:34:18 10° N
Cosmos 1818 3.5 19:24:50 10° SW 19:30:17 90° E 19:35:47 10° NE
STARLINK-1237 4.4 19:26:24 10° WNW 19:30:25 46° N 19:31:47 33° NE
Cosmos 921 Rocket 2.8 19:28:19 10° NNW 19:32:30 67° ENE 19:32:50 64° E
Cosmos 614 Rocket 3.9 19:28:44 10° SSW 19:33:58 86° ESE 19:39:13 10° NNE
CZ-2C R/B 2.7 19:29:11 10° N 19:34:21 72° WNW 19:39:31 10° SSW
BREEZE M DEB (TANK) 3.3 19:26:28 10° SW 19:34:23 53° SSE 19:34:31 53° SSE
STARLINK-1233 3.9 19:31:49 10° WNW 19:34:36 43° N 19:34:36 43° N
Cosmos 407 Rocket 3.3 19:30:03 11° SSW 19:35:00 75° ESE 19:40:09 10° NNE
STARLINK-1212 3.9 19:32:17 10° WNW 19:35:01 43° N 19:35:01 43° N
STARLINK-1202 4.4 19:31:23 10° WNW 19:35:25 46° N 19:36:33 36° NE
STARLINK-1105 3.9 19:32:44 10° WNW 19:35:29 43° N 19:35:29 43° N
Cosmos 2228 3.9 19:31:51 10° SSW 19:35:59 48° WNW 19:40:13 10° N
STARLINK-1206 3.9 19:33:12 10° WNW 19:35:53 42° N 19:35:53 42° N
STARLINK-1247 3.9 19:33:39 10° WNW 19:36:19 42° N 19:36:19 42° N
STARLINK-1203 4.4 19:32:45 10° WNW 19:36:45 47° N 19:37:45 38° NE
STARLINK-1227 3.9 19:34:03 10° WNW 19:36:46 43° N 19:36:46 43° N
Cosmos 1656 Rocket 4.3 19:31:50 10° NW 19:37:18 50° WSW 19:40:14 26° S
SPOT 1/Viking Rocket 3.7 19:36:24 48° ESE 19:37:30 59° ENE 19:42:39 10° N
STARLINK-1218 4.0 19:34:34 10° WNW 19:37:11 42° NNW 19:37:11 42° NNW
STARLINK-1226 4.0 19:34:59 10° WNW 19:37:37 42° NNW 19:37:37 42° NNW
STARLINK-1254 4.0 19:35:25 10° WNW 19:38:04 42° NNW 19:38:04 42° NNW
STARLINK-1215 4.0 19:35:55 10° WNW 19:38:29 41° NNW 19:38:29 41° NNW
STARLINK-1231 4.0 19:36:22 10° WNW 19:38:56 41° NNW 19:38:56 41° NNW
IGS 5A 3.4 19:39:45 63° ENE 19:39:46 63° ENE 19:43:55 10° N
STARLINK-1232 4.0 19:37:16 10° WNW 19:39:48 41° NNW 19:39:48 41° NNW
STARLINK-1217 4.1 19:37:43 10° WNW 19:40:14 41° NNW 19:40:14 41° NNW
STARLINK-1208 4.0 19:38:07 10° WNW 19:40:40 41° NNW 19:40:40 41° NNW
STARLINK-1229 4.1 19:38:36 10° WNW 19:41:04 40° NNW 19:41:04 40° NNW
STARLINK-1271 4.1 19:39:04 10° WNW 19:41:32 40° NNW 19:41:32 40° NNW
SAR-Lupe-2 3.6 19:38:42 10° NNE 19:42:09 76° NW 19:42:09 76° NW
STARLINK-1270 4.1 19:39:31 10° WNW 19:41:57 40° NNW 19:41:57 40° NNW
STARLINK-1154 4.1 19:39:58 10° WNW 19:42:23 40° NNW 19:42:23 40° NNW
STARLINK-1197 4.2 19:40:52 10° WNW 19:43:15 39° NNW 19:43:15 39° NNW
STARLINK-1189 4.2 19:41:20 10° WNW 19:43:42 39° NNW 19:43:42 39° NNW
STARLINK-1198 4.2 19:41:46 10° WNW 19:44:07 39° NNW 19:44:07 39° NNW
STARLINK-1188 4.2 19:42:13 10° WNW 19:44:33 38° NNW 19:44:33 38° NNW
STARLINK-1246 4.3 19:41:21 10° WNW 19:45:23 48° N 19:46:06 43° NE
Cosmos 2341 Rocket 4.0 19:39:24 10° N 19:45:49 90° SSE 19:48:37 37° S
STARLINK-1235 4.2 19:42:52 10° WNW 19:45:11 40° NW 19:45:11 40° NW
STARLINK-1187 4.2 19:43:11 10° WNW 19:45:33 40° NNW 19:45:33 40° NNW
BREEZE-M DEB (TANK) 4.2 19:42:12 10° WNW 19:45:58 35° WSW 19:45:58 35° WSW
SL-4 R/B 4.1 19:43:22 10° SW 19:43:45 13° SW 19:43:45 13° SW
COSMOS 2455 2.8 19:40:40 10° NNW 19:46:44 75° NE 19:48:18 51° SE
STARLINK-1199 4.3 19:44:09 10° WNW 19:46:28 38° NNW 19:46:28 38° NNW
STARLINK-1191 4.3 19:44:37 10° WNW 19:46:54 38° NNW 19:46:54 38° NNW
STARLINK-1201 4.2 19:44:47 10° WNW 19:47:21 41° NNW 19:47:21 41° NNW
STARLINK-1210 4.3 19:45:03 10° WNW 19:47:20 38° NNW 19:47:20 38° NNW
ERS-1 Rocket 3.0 19:47:59 55° E 19:48:25 57° ENE 19:53:22 10° N
STARLINK-1221 4.3 19:45:30 10° WNW 19:47:46 37° NNW 19:47:46 37° NNW
Cosmos 1340 Rocket 3.1 19:47:46 47° SW 19:48:46 66° WNW 19:52:49 10° N
STARLINK-1219 4.4 19:45:57 10° WNW 19:48:12 37° NNW 19:48:12 37° NNW
STARLINK-1222 4.4 19:46:25 10° WNW 19:48:38 37° NW 19:48:38 37° NW
Cosmos 1980 Rocket 4.3 19:46:46 10° N 19:49:56 15° NNE 19:52:06 12° ENE
STARLINK-1211 4.4 19:46:52 10° WNW 19:49:04 36° NW 19:49:04 36° NW
STARLINK-1214 4.4 19:47:19 10° WNW 19:49:31 36° NW 19:49:31 36° NW
STARLINK-1224 4.2 19:46:24 10° WNW 19:50:26 48° N 19:50:56 46° NNE
STARLINK-1245 4.5 19:47:48 10° WNW 19:49:55 35° NW 19:49:55 35° NW
STARLINK-1238 4.4 19:48:12 10° WNW 19:50:23 36° NW 19:50:23 36° NW
STARLINK-1225 4.2 19:51:22 10° WNW 19:55:25 49° N 19:55:40 48° NNE
Cosmos 1954 Rocket 4.2 19:57:46 54° ENE 19:57:46 54° ENE 20:02:15 10° NNE
Cosmos 1892 4.1 19:54:30 10° N 19:56:50 30° NNE 19:56:50 30° NNE
STARLINK-1230 4.2 19:56:22 10° WNW 20:00:25 50° N 20:00:28 50° NNE
STARLINK-1243 4.2 20:01:20 10° WNW 20:05:14 51° N 20:05:14 51° N
ATLAS CENTAUR R/B 3.7 20:03:29 10° N 20:05:37 14° NNE 20:06:08 14° NNE
Cosmos 2218 Rocket 3.9 20:00:23 10° N 20:06:36 82° E 20:07:51 59° SSE
Cosmos 1461 3.3 20:03:38 10° NW 20:07:55 63° WSW 20:07:55 63° WSW
Cosmos 1656 4.4 20:03:08 10° NNW 20:08:30 40° NE 20:08:58 39° ENE
ERBS 4.3 20:06:30 10° NW 20:08:37 26° NNW 20:08:37 26° NNW
STARLINK-1236 4.3 20:06:22 10° WNW 20:10:04 51° N 20:10:04 51° N
Cosmos 1076 Rocket 4.0 20:07:46 10° N 20:11:09 55° N 20:11:09 55° N
Resurs 01 Rocket 3.7 20:12:29 16° SW 20:14:34 22° W 20:18:02 10° NW
ATLAS 5 CENTAUR R/B 3.8 20:20:51 16° NE 20:20:51 16° NE 20:21:54 10° NE
Cosmos 1825 4.5 20:15:59 10° N 20:17:15 18° NNE 20:17:15 18° NNE
In-Cosmos 22 Rocket 4.2 20:13:40 10° NNW 20:19:31 84° W 20:20:12 71° S
Cosmos 2181 Rocket 4.0 20:18:41 47° SSW 20:20:37 81° W 20:26:52 10° N
USA 32 4.4 20:15:37 10° N 20:20:05 52° NE 20:20:05 52° NE
NOSS 3-4 (A) 4.4 20:16:07 10° NW 20:22:47 48° WSW 20:24:57 38° SSW
NOSS 3-4 (C) 4.4 20:16:13 10° NW 20:22:54 48° WSW 20:25:03 38° SSW
Cosmos 1300 4.1 20:23:46 38° NW 20:23:46 38° NW 20:26:37 10° N
Landsat 7 4.4 20:24:18 48° WSW 20:24:34 48° W 20:29:13 10° NNW
Meteor 2-1 Rocket 4.2 20:25:44 72° E 20:25:44 72° E 20:31:28 10° NNE
Cosmos 1763 Rocket 3.8 20:24:12 10° NNW 20:28:47 57° NNE 20:28:47 57° NNE
SL-8 Rocket 4.4 20:25:05 10° NNW 20:31:16 59° W 20:32:55 45° SW
CARTOSAT-1 4.5 20:36:52 47° NW 20:36:52 47° NW 20:40:10 10° NNW
SPOT 5 3.5 20:39:20 47° NW 20:39:20 47° NW 20:42:38 10° NNW
Cosmos 2058 4.2 20:35:08 10° NNW 20:37:54 38° NW 20:37:54 38° NW
Cosmos 2366 rocket 4.2 20:35:35 10° NNW 20:41:38 61° W 20:42:32 55° SW
USA 234 3.5 20:42:02 10° NE 20:48:31 67° NNW 20:54:59 10° WSW
Cosmos 2369 4.4 20:44:35 10° NNW 20:49:33 45° NE 20:49:33 45° NE
Cosmos 540 Rocket 4.4 20:45:38 10° NNW 20:49:35 41° NNE 20:49:35 41° NNE
Nadezhda 3 Rocket 4.3 20:52:27 57° NE 20:52:27 57° NE 20:57:47 10° NNE
ATLAS 2AS CENTAUR R/B 4.0 20:48:36 10° NW 20:54:45 29° WSW 20:56:15 26° SW
Meteor 2-3 Rocket 4.5 20:55:40 10° N 21:00:13 45° NE 21:00:13 45° NE
RESURS DK-1 4.4 20:57:40 10° NNW 20:59:42 26° N 20:59:42 26° N
Cosmos 841 Rocket 4.2 20:57:38 10° NNW 21:01:39 49° N 21:01:39 49° N
BREEZE M DEB (TANK) 3.8 21:02:08 66° SW 21:03:06 81° SSE 21:20:06 10° ENE
Terra 3.0 21:07:36 39° WNW 21:07:36 39° WNW 21:11:03 10° NNW
Cosmos 1697 Rocket 3.2 21:02:17 10° NNW 21:06:58 53° NNE 21:06:58 53° NNE
Mayak 1.0 21:11:59 10° NNE 21:13:23 21° N 21:13:23 21° N
CZ-4C R/B 3.4 21:09:36 10° NW 21:16:18 51° NE 21:17:32 47° ENE
SL-16 R/B 4.1 21:13:48 10° N 21:17:53 20° NE 21:18:41 19° NE
Meteor 2-10 Rocket 4.4 21:20:36 45° N 21:20:36 45° N 21:24:22 10° N
Cosmos 1821 Rocket 4.2 21:18:06 10° NNW 21:23:55 66° WNW 21:23:55 66° WNW
Cosmos 2344 4.5 21:15:34 10° NW 21:24:39 65° NE 21:28:51 43° ESE
Cosmos 2322 Rocket 4.1 21:25:12 10° N 21:29:17 20° NE 21:30:00 19° NE
Cosmos 1980 Rocket 3.1 21:29:42 10° NNW 21:33:52 44° N 21:33:52 44° N
Cosmos 1934 Rocket 4.3 21:30:24 10° N 21:35:38 63° NNW 21:35:38 63° NNW
Cosmos 1605 Rocket 4.5 21:37:09 10° N 21:41:55 54° NNE 21:41:55 54° NNE
ATLAS CENTAUR R/B 4.2 21:41:34 10° NNW 21:42:19 15° NNW 21:42:19 15° NNW
Cosmos 2082 Rocket 3.8 22:02:45 27° NE 22:02:45 27° NE 22:05:18 10° NNE
ATLAS 5 CENTAUR R/B 3.8 22:02:16 24° NNW 22:02:24 24° NNW 22:06:32 10° NNE
COSMOS 2406 4.3 22:09:22 42° NNW 22:09:22 42° NNW 22:13:37 10° NNE
Cosmos 1833 Rocket 3.9 22:21:36 38° N 22:21:36 38° N 22:25:08 10° NNE
USA 234 4.2 22:24:54 10° ENE 22:31:01 44° N 22:37:08 10° WNW
Mayak 1.8 22:49:54 10° NW 22:49:57 10° NW 22:49:57 10° NW
SL-16 R/B 3.5 22:57:13 10° NNW 23:00:32 37° NNW 23:00:32 37° NNW
CZ-4C R/B 3.7 22:58:07 10° NW 23:02:42 41° WNW 23:02:42 41° WNW
Cosmos 2360 Rocket 3.4 23:06:39 10° NNW 23:10:45 39° NNE 23:10:45 39° NNE
Cosmos 2333 Rocket 4.1 23:08:48 10° N 23:13:21 24° NE 23:15:07 21° ENE
Cosmos 2322 Rocket 3.5 23:08:34 10° NNW 23:11:48 35° NNW 23:11:48 35° NNW
Cosmos 1980 Rocket 4.4 23:14:15 10° NW 23:15:38 16° WNW 23:15:38 16° WNW
Resurs 1-4 Rocket 3.8 23:32:48 10° NE 23:36:00 25° ENE 23:36:00 25° ENE
Cosmos 2082 Rocket 3.7 23:44:34 28° NW 23:44:34 28° NW 23:49:05 10° NNE
CZ-2D R/B 3.5 23:44:45 10° NNE 23:48:41 33° ENE 23:48:41 33° ENE
